Home   Weather   Houmt Souk (Djerba)   Past weeks

Flag for Tunisia Past Weather in Houmt Souk (Djerba), Tunisia — Yesterday and Last 2 Weeks

Now
54 °F

Passing clouds.


Feels Like: 50 °F
Forecast: 52 / 58 °F
Wind: 12 mph from Southwest

Location: Djerba Mellita

Current Time: Jan 24, 2017 at 10:32:38 pm

Latest Report: Jan 24, 2017 at 10:00 pm


Visibility: 5 mi

Pressure: 29.98 "Hg

Humidity: 67%

Dew Point: 43 °F

Location of Houmt Souk (Djerba)Location

Past Weather in Houmt Souk (Djerba) — Graph

°F

Houmt Souk (Djerba) Temperature Yesterday

Maximum temperature yesterday: 61 °F (at 2:30 pm)
Minimum temperature yesterday: 43 °F (at 3:30 am)
Average temperature yesterday: 52 °F

High & Low Weather Summary for the Past Weeks

 TemperatureHumidityPressure
High66 °F (Jan 20, 12:00 pm)100% (Jan 13, 2:00 am)30.27 "Hg (Jan 13, 2:00 am)
Low39 °F (Jan 19, 7:00 am)24% (Jan 21, 4:00 pm)29.71 "Hg (Jan 17, 2:30 pm)
Average53 °F61%29.96 "Hg
* Reported Jan 9 9:00 pm — Jan 24 9:00 pm, Houmt Souk (Djerba), Weather by CustomWeather, © 2017

Note: Actual official high and low records may vary slightly from our data, if they occured in-between our weather recording intervals... More about our weather records

Advertising

Houmt Souk (Djerba) Weather History for the Previous 24 Hours

Scroll right to see more
 ConditionsComfort  
Time TempWeatherWind HumidityBarometerVisibility
9:00 pm
Tue, Jan 24
54 °FPassing clouds.12 mph67%29.95 "HgN/A
8:30 pm54 °FPassing clouds.14 mph67%29.95 "HgN/A
8:00 pm55 °FPassing clouds.14 mph59%29.95 "HgN/A
7:00 pm55 °FPassing clouds.15 mph59%29.92 "HgN/A
6:30 pm55 °FPassing clouds.15 mph63%29.92 "HgN/A
6:00 pm55 °FPassing clouds.17 mph59%29.92 "HgN/A
5:00 pm59 °FPassing clouds.15 mph55%29.89 "HgN/A
4:30 pm59 °FPassing clouds.15 mph55%29.89 "HgN/A
4:00 pm59 °FPassing clouds.16 mph51%29.89 "HgN/A
1:00 pm57 °FPassing clouds.13 mph55%29.89 "HgN/A
12:30 pm57 °FPassing clouds.14 mph55%29.92 "HgN/A
12:00 pm55 °FPassing clouds.14 mph59%29.92 "HgN/A
11:30 am55 °FPassing clouds.14 mph59%29.92 "HgN/A
11:00 am55 °FPassing clouds.15 mph59%29.92 "HgN/A
10:30 am54 °FPassing clouds.15 mph63%29.92 "HgN/A
10:00 am54 °FPassing clouds.14 mph63%29.92 "HgN/A
9:00 am52 °FPassing clouds.15 mph67%29.89 "HgN/A
8:30 am52 °FPassing clouds.14 mph62%29.89 "HgN/A
8:00 am50 °FPassing clouds.13 mph67%29.89 "HgN/A
7:30 am50 °FPassing clouds.13 mph67%29.89 "Hg4 mi
7:00 am48 °FPassing clouds.13 mph71%29.86 "Hg4 mi
6:30 am43 °FPassing clouds.8 mph81%29.86 "Hg4 mi
6:00 am43 °FPassing clouds.7 mph76%29.86 "Hg4 mi
5:30 am43 °FPassing clouds.5 mph81%29.86 "Hg4 mi
5:00 am43 °FPassing clouds.8 mph76%29.86 "Hg4 mi
4:30 am43 °FPassing clouds.6 mph76%29.86 "Hg4 mi
4:00 am45 °FPassing clouds.8 mph76%29.86 "Hg5 mi
3:30 am45 °FQuite cool.10 mph76%29.86 "HgN/A
3:00 am43 °FPassing clouds.7 mph76%29.86 "Hg5 mi
2:30 am45 °FPassing clouds.8 mph71%29.86 "Hg5 mi
2:00 am45 °FPassing clouds.9 mph71%29.86 "Hg5 mi
1:30 am45 °FPassing clouds.8 mph76%29.86 "Hg5 mi
1:00 am46 °FPassing clouds.9 mph71%29.86 "Hg5 mi
12:30 am48 °FPassing clouds.9 mph66%29.89 "Hg5 mi
12:00 am48 °FPassing clouds.8 mph66%29.89 "Hg5 mi
11:30 pm
Mon, Jan 23
48 °FPassing clouds.8 mph66%29.89 "Hg5 mi
11:00 pm50 °FPassing clouds.8 mph67%29.89 "Hg5 mi
10:30 pm52 °FPassing clouds.10 mph67%29.89 "Hg5 mi
10:00 pm54 °FPassing clouds.14 mph63%29.89 "Hg5 mi
Weather by CustomWeather, © 2017

See weather overviewHow to use our weather pages